FW5395 Weather Reports


time (UTC)temp
C
wind
direction
speed
KPH
gust
KPH
rain 1hr
cm
rain 24hr
cm
rain mn
cm
humidity
%
barometer
mb
20260508220504 11 221 0.0 4.8 0.00 0.00 0.00 44 1017.2
20260508220008 11 239 3.2 4.8 0.00 0.00 0.00 40 1017.1
20260508215503 11 232 1.6 4.8 0.00 0.00 0.00 38 1016.9
20260508215003 12 222 0.0 8.0 0.00 0.00 0.00 38 1016.9
20260508214503 12 223 1.6 12.9 0.00 0.00 0.00 36 1016.8
20260508214004 12 218 3.2 12.9 0.00 0.00 0.00 35 1016.8
20260508213503 12 218 4.8 14.5 0.00 0.00 0.00 33 1016.6
20260508213025 13 234 6.4 14.5 0.00 0.00 0.00 32 1016.5
20260508212503 13 239 6.4 14.5 0.00 0.00 0.00 30 1016.6
20260508161026 14 228 4.8 25.7 0.00 0.15 0.00 43 1018.2
20260508160505 14 252 6.4 27.4 0.00 0.15 0.00 43 1018.2
20260508160005 13 245 9.7 32.2 0.00 0.15 0.00 44 1018.6
20260508155504 14 227 9.7 32.2 0.00 0.15 0.00 44 1018.7
20260508155005 14 225 8.0 27.4 0.00 0.18 0.00 44 1018.6
20260508154505 14 228 9.7 27.4 0.00 0.18 0.00 45 1018.8
20260508154005 14 215 6.4 25.7 0.00 0.20 0.00 45 1018.8
20260508153504 14 218 9.7 22.5 0.00 0.25 0.00 46 1018.9
20260508153005 13 230 8.0 32.2 0.00 0.25 0.00 45 1019.1
20260508152525 13 230 8.0 32.2 0.00 0.25 0.00 45 1019.3
20260508152004 14 236 4.8 32.2 0.00 0.25 0.00 47 1019.6
20260508151505 13 225 8.0 32.2 0.00 0.25 0.00 46 1019.6
20260508151004 13 216 3.2 22.5 0.00 0.25 0.00 47 1019.5
20260508150505 13 223 1.6 22.5 0.00 0.25 0.00 48 1019.5
20260508150026 13 233 6.4 22.5 0.00 0.25 0.00 47 1019.8
20260508145504 13 218 9.7 25.7 0.00 0.25 0.00 47 1019.9
20260508145026 13 233 9.7 35.4 0.00 0.25 0.00 47 1019.8
20260508144525 13 239 9.7 35.4 0.00 0.25 0.00 49 1019.9
20260508144004 13 220 4.8 27.4 0.00 0.25 0.00 50 1019.7
20260508143504 12 231 12.9 27.4 0.00 0.25 0.00 49 1019.9
20260508143025 12 227 6.4 27.4 0.00 0.25 0.00 50 1019.9
20260508142504 12 222 11.3 17.7 0.00 0.25 0.00 49 1019.8
20260508142005 13 242 3.2 25.7 0.00 0.25 0.00 50 1019.8
20260508141525 12 236 4.8 25.7 0.00 0.25 0.00 52 1019.8
20260508141004 12 233 9.7 25.7 0.00 0.25 0.00 50 1019.9
20260508140525 12 227 12.9 27.4 0.00 0.25 0.00 49 1020.0
20260508140025 12 227 8.0 27.4 0.00 0.25 0.00 50 1020.2
20260508135504 12 221 9.7 20.9 0.00 0.25 0.00 51 1020.0
20260508135004 12 216 3.2 25.7 0.00 0.25 0.00 51 1019.9
20260508134525 11 229 8.0 25.7 0.00 0.25 0.00 52 1020.1
20260508134004 11 239 9.7 20.9 0.00 0.25 0.00 51 1020.0
20260508133504 11 247 6.4 25.7 0.00 0.25 0.00 52 1020.1
20260508133004 11 239 8.0 25.7 0.00 0.25 0.00 52 1020.1
20260508132525 11 232 9.7 20.9 0.00 0.25 0.00 53 1020.1
20260508132025 11 236 8.0 20.9 0.00 0.25 0.00 54 1020.1
20260508131504 11 253 8.0 25.7 0.00 0.25 0.00 54 1020.2
20260508131025 10 253 9.7 25.7 0.00 0.25 0.00 54 1020.2
20260508130504 11 256 8.0 25.7 0.00 0.25 0.00 54 1020.1
20260508130004 10 250 8.0 25.7 0.00 0.25 0.00 55 1019.9
20260508125504 10 235 4.8 22.5 0.00 0.25 0.00 55 1020.0
20260508125004 10 229 6.4 30.6 0.00 0.25 0.00 55 1020.1
20260508124504 10 235 4.8 30.6 0.00 0.25 0.00 57 1020.3
20260508124025 10 242 8.0 27.4 0.00 0.25 0.00 57 1020.1
20260508123525 10 228 9.7 25.7 0.00 0.25 0.00 57 1020.1
20260508123004 9 230 9.7 25.7 0.00 0.25 0.00 57 1020.0
20260508122504 9 248 9.7 25.7 0.00 0.25 0.00 58 1020.0
20260508122004 9 267 3.2 25.7 0.00 0.25 0.00 60 1020.2
20260508121504 9 244 8.0 25.7 0.00 0.25 0.00 59 1020.1
20260508121025 9 225 6.4 25.7 0.00 0.25 0.00 60 1020.2
20260508120504 8 238 4.8 22.5 0.00 0.25 0.00 61 1020.0
20260508120025 8 242 9.7 22.5 0.00 0.25 0.00 61 1020.0
20260508115524 8 253 6.4 25.7 0.00 0.25 0.00 61 1020.1
20260508115004 8 259 12.9 25.7 0.00 0.25 0.00 61 1020.0
20260508114504 8 277 6.4 27.4 0.00 0.25 0.00 61 1019.9
20260508114004 8 263 11.3 27.4 0.00 0.25 0.00 61 1019.8
20260508113524 8 248 6.4 20.9 0.00 0.25 0.00 61 1019.4
20260508113004 8 232 11.3 27.4 0.00 0.25 0.00 61 1019.6
20260508112503 8 216 6.4 27.4 0.00 0.25 0.00 61 1019.6
20260508112003 8 237 9.7 17.7 0.00 0.25 0.00 61 1019.4
20260508111503 8 252 11.3 25.7 0.00 0.25 0.00 61 1019.3
20260508111024 8 245 9.7 25.7 0.00 0.25 0.00 61 1019.4
20260508110503 8 236 3.2 22.5 0.00 0.25 0.00 62 1019.3
20260508110004 8 232 9.7 17.7 0.00 0.25 0.00 61 1019.0
20260508105503 7 221 3.2 16.1 0.00 0.25 0.00 63 1019.1
20260508105003 7 214 4.8 17.7 0.00 0.25 0.00 62 1018.8
20260508104503 7 232 3.2 17.7 0.00 0.25 0.00 61 1018.7
20260508104024 8 240 8.0 17.7 0.00 0.25 0.00 60 1018.4
20260508103503 8 226 3.2 17.7 0.00 0.25 0.00 61 1018.3
20260508103003 7 231 4.8 17.7 0.00 0.25 0.00 62 1018.3
20260508102503 8 238 6.4 17.7 0.00 0.25 0.00 61 1018.2
20260508102003 8 232 3.2 14.5 0.00 0.25 0.00 62 1018.2
20260508101503 8 231 6.4 12.9 0.00 0.25 0.00 63 1017.9
20260508101005 8 224 3.2 12.9 0.00 0.25 0.00 63 1017.8
20260508100505 8 218 4.8 12.9 0.00 0.25 0.00 62 1017.8
20260508100005 8 221 3.2 22.5 0.00 0.25 0.00 62 1017.8
20260508095505 8 222 6.4 22.5 0.00 0.25 0.00 62 1017.8
20260508095005 8 220 9.7 16.1 0.00 0.25 0.00 63 1017.6
20260508094505 8 218 4.8 16.1 0.00 0.25 0.00 63 1017.7
20260508094026 8 225 4.8 25.7 0.00 0.25 0.00 63 1017.7
20260508093505 8 223 6.4 25.7 0.00 0.25 0.00 62 1017.6
20260508093005 8 228 8.0 20.9 0.00 0.25 0.00 62 1017.6
20260508092505 8 243 9.7 20.9 0.00 0.25 0.00 64 1017.5
20260508092005 8 238 6.4 30.6 0.00 0.25 0.00 64 1017.3
20260508091526 8 220 8.0 40.2 0.00 0.25 0.00 63 1017.2
20260508091026 8 203 11.3 40.2 0.00 0.25 0.00 64 1017.0
20260508090505 8 214 9.7 22.5 0.00 0.25 0.00 65 1016.8
20260508090005 8 223 6.4 22.5 0.00 0.25 0.00 66 1016.8
20260508085505 7 229 4.8 16.1 0.00 0.25 0.00 68 1016.7
20260508085005 7 228 3.2 14.5 0.00 0.25 0.00 70 1016.5
20260508084505 7 225 3.2 12.9 0.00 0.25 0.00 71 1016.5
20260508084005 7 221 3.2 12.9 0.00 0.28 0.00 72 1016.4
20260508083505 7 219 6.4 14.5 0.00 0.28 0.00 71 1016.4
20260508083005 7 231 3.2 14.5 0.00 0.28 0.00 71 1016.4
20260508082505 7 228 8.0 14.5 0.00 0.36 0.00 71 1016.3
20260508082005 7 216 6.4 14.5 0.00 0.41 0.00 71 1016.4
20260508081505 7 222 6.4 14.5 0.00 0.41 0.00 71 1016.4
20260508081005 7 218 3.2 12.9 0.00 0.41 0.00 72 1016.4
20260508080505 7 221 1.6 14.5 0.00 0.41 0.00 73 1016.3
20260508080005 8 227 4.8 14.5 0.00 0.41 0.00 74 1016.4
20260508075505 8 224 1.6 12.9 0.00 0.41 0.00 74 1016.3
20260508075005 8 230 1.6 9.7 0.00 0.41 0.00 74 1016.4
20260508074505 8 226 1.6 12.9 0.00 0.41 0.00 74 1016.4
20260508074025 8 230 1.6 12.9 0.00 0.41 0.00 75 1016.7
20260508073504 8 231 3.2 9.7 0.00 0.51 0.00 75 1016.5
20260508073005 8 223 1.6 12.9 0.00 0.56 0.00 75 1016.4
20260508072504 8 223 4.8 12.9 0.00 0.56 0.00 74 1016.5
20260508072026 8 224 4.8 17.7 0.00 0.56 0.00 73 1016.3
20260508071526 8 216 3.2 17.7 0.00 0.56 0.00 74 1016.3
20260508071004 8 219 3.2 12.9 0.00 0.58 0.00 75 1016.3
20260508070504 8 231 4.8 8.0 0.00 0.58 0.00 75 1016.5
20260508070005 8 226 3.2 9.7 0.00 0.58 0.00 75 1016.2
20260508065504 8 236 1.6 14.5 0.00 0.58 0.00 75 1016.2
20260508065004 8 240 1.6 14.5 0.00 0.58 0.00 75 1016.3
20260508064504 8 219 3.2 9.7 0.00 0.58 0.00 73 1016.2
20260508064025 8 211 4.8 9.7 0.00 0.58 0.00 72 1016.3
20260508063504 8 217 4.8 12.9 0.00 0.58 0.00 72 1016.3
20260508063004 8 210 6.4 14.5 0.00 0.58 0.00 72 1016.1
20260508062504 8 211 1.6 14.5 0.00 0.58 0.00 73 1016.3
20260508062025 8 220 4.8 14.5 0.00 0.58 0.00 72 1016.1
20260508061504 8 214 3.2 9.7 0.00 0.58 0.00 72 1016.2
20260508061004 8 212 1.6 4.8 0.00 0.58 0.00 72 1016.4
20260508060505 8 231 1.6 16.1 0.00 0.58 0.00 71 1016.3
20260508060025 8 224 1.6 16.1 0.00 0.58 0.00 70 1016.4
20260508055504 9 207 3.2 12.9 0.00 0.58 0.00 68 1016.5
20260508055004 9 234 1.6 17.7 0.00 0.58 0.00 69 1016.7
20260508054504 9 238 4.8 17.7 0.00 0.58 0.00 68 1016.6
20260508054025 9 224 3.2 12.9 0.00 0.58 0.00 67 1016.7
20260508053504 10 221 3.2 16.1 0.00 0.58 0.00 68 1016.9
20260508053004 10 228 6.4 16.1 0.00 0.58 0.00 67 1016.8
20260508052504 10 236 6.4 16.1 0.00 0.58 0.00 67 1016.9
20260508052025 10 235 4.8 16.1 0.00 0.58 0.00 66 1016.9
20260508051504 10 234 6.4 12.9 0.00 0.58 0.00 67 1016.9
20260508051004 10 225 4.8 16.1 0.00 0.58 0.00 66 1016.9
20260508050504 10 234 3.2 16.1 0.00 0.58 0.00 66 1016.8
20260508050004 9 250 4.8 14.5 0.00 0.58 0.00 70 1016.7
20260508045504 9 265 1.6 8.0 0.00 0.58 0.00 75 1016.9
20260508045025 9 262 1.6 9.7 0.00 0.58 0.00 75 1016.7
20260508044504 9 254 4.8 9.7 0.00 0.58 0.00 72 1016.4
20260508044004 9 237 3.2 14.5 0.00 0.58 0.00 72 1016.1
20260508043504 9 226 3.2 14.5 0.00 0.58 0.00 72 1016.4
20260508043004 9 251 3.2 17.7 0.00 0.58 0.00 72 1016.5
20260508042504 10 266 3.2 17.7 0.00 0.58 0.00 72 1016.6
20260508042004 10 259 8.0 17.7 0.00 0.58 0.00 73 1016.1
20260508041504 10 235 3.2 12.9 0.00 0.58 0.00 73 1015.9
20260508041004 10 227 4.8 12.9 0.00 0.58 0.00 73 1015.5
20260508040504 10 221 1.6 8.0 0.00 0.58 0.00 74 1015.1
20260508040004 9 206 1.6 9.7 0.00 0.58 0.00 74 1014.9
20260508035504 9 203 3.2 9.7 0.00 0.58 0.00 73 1014.8
20260508035004 9 199 3.2 9.7 0.00 0.58 0.00 75 1014.8
20260508034504 9 196 1.6 9.7 0.00 0.58 0.00 75 1015.0
20260508034025 10 206 3.2 9.7 0.00 0.58 0.00 74 1015.3
20260508033504 10 214 4.8 12.9 0.00 0.58 0.00 73 1015.4
20260508033024 10 216 1.6 12.9 0.00 0.58 0.00 73 1015.6
20260508032503 10 215 3.2 8.0 0.00 0.58 0.00 73 1015.7
20260508032024 10 214 3.2 12.9 0.00 0.58 0.00 72 1015.3
20260508031503 10 220 1.6 12.9 0.00 0.58 0.00 70 1015.2
20260508031003 10 218 4.8 12.9 0.00 0.58 0.00 69 1015.2
20260508030503 10 211 3.2 14.5 0.00 0.58 0.00 69 1015.3
20260508030005 11 220 1.6 14.5 0.00 0.58 0.00 68 1015.5
20260508025503 11 227 3.2 12.9 0.00 0.58 0.58 68 1015.5
20260508025004 11 224 1.6 16.1 0.00 0.58 0.58 68 1015.5
20260508024504 11 230 3.2 16.1 0.00 0.58 0.58 67 1015.7
20260508024004 11 231 3.2 14.5 0.00 0.58 0.58 67 1015.7
20260508023525 11 230 4.8 17.7 0.00 0.58 0.58 66 1015.6
20260508023004 11 231 4.8 17.7 0.00 0.58 0.58 66 1015.6
20260508022524 11 237 6.4 20.9 0.00 0.58 0.58 66 1015.8
20260508022004 11 237 3.2 20.9 0.00 0.58 0.58 68 1015.8
20260508021503 11 234 3.2 22.5 0.00 0.58 0.58 69 1015.8
20260508021003 11 235 4.8 22.5 0.00 0.58 0.58 70 1015.8
20260508020503 11 244 8.0 20.9 0.00 0.58 0.58 69 1015.9
20260508020004 11 247 4.8 17.7 0.00 0.58 0.58 70 1015.6
20260508015503 11 236 3.2 14.5 0.00 0.58 0.58 70 1015.6
20260508015003 11 246 3.2 14.5 0.00 0.58 0.58 69 1015.4
20260508014524 11 246 3.2 16.1 0.00 0.58 0.58 69 1015.3
20260508014003 12 238 3.2 16.1 0.00 0.58 0.58 68 1015.2
20260508013503 11 235 6.4 20.9 0.00 0.58 0.58 70 1015.4
20260508013003 12 238 8.0 20.9 0.00 0.58 0.58 69 1015.3
20260508012503 12 233 8.0 20.9 0.00 0.58 0.58 69 1015.2
20260508012005 12 221 0.0 20.9 0.00 0.58 0.58 71 1015.1
20260508011506 12 230 6.4 20.9 0.00 0.58 0.58 71 1015.0
20260508011006 12 237 4.8 17.7 0.00 0.58 0.58 71 1014.9
20260508010526 12 233 8.0 17.7 0.00 0.58 0.58 71 1014.7
20260508010006 12 245 4.8 16.1 0.00 0.58 0.58 71 1014.7
20260508005506 12 243 3.2 14.5 0.00 0.58 0.58 73 1014.9
20260508005006 12 235 3.2 12.9 0.00 0.58 0.58 74 1014.9
20260508004506 12 234 4.8 14.5 0.00 0.58 0.58 73 1014.7
20260508004006 12 227 1.6 14.5 0.00 0.58 0.58 74 1014.8
20260508003505 12 223 3.2 9.7 0.00 0.58 0.58 74 1014.8
20260508003026 12 230 4.8 9.7 0.00 0.58 0.58 74 1014.7
20260508002505 12 233 3.2 9.7 0.00 0.58 0.58 74 1014.6
20260508002005 12 234 1.6 9.7 0.00 0.58 0.58 74 1014.5
20260508001505 12 237 1.6 9.7 0.00 0.58 0.58 75 1014.5
20260508001005 12 237 4.8 14.5 0.00 0.58 0.58 74 1014.5
20260508000505 12 238 1.6 14.5 0.00 0.58 0.58 74 1014.6
20260508000005 12 236 3.2 9.7 0.00 0.58 0.58 75 1014.5
20260507235505 12 229 0.0 9.7 0.00 0.58 0.58 76 1014.5
20260507235026 12 230 3.2 4.8 0.00 0.58 0.58 77 1014.6
20260507234505 12 228 3.2 9.7 0.00 0.58 0.58 78 1014.7
20260507234026 11 243 0.0 9.7 0.00 0.58 0.58 79 1014.6
20260507233505 12 243 4.8 9.7 0.00 0.58 0.58 79 1014.7
20260507233005 12 230 1.6 8.0 0.00 0.58 0.58 79 1014.6
20260507232505 12 220 1.6 4.8 0.00 0.58 0.58 79 1014.7
20260507232005 12 200 1.6 4.8 0.00 0.58 0.58 78 1014.9
20260507231505 12 191 0.0 3.2 0.00 0.58 0.58 79 1014.7
20260507231026 12 207 0.0 4.8 0.00 0.58 0.58 77 1014.8
20260507230505 12 218 0.0 8.0 0.00 0.58 0.58 76 1015.0
20260507230005 12 221 1.6 8.0 0.00 0.58 0.58 74 1014.8
20260507225505 12 227 1.6 8.0 0.00 0.58 0.58 74 1014.8
20260507225005 13 235 3.2 8.0 0.00 0.58 0.58 73 1014.8
20260507224505 13 217 1.6 4.8 0.00 0.58 0.58 72 1014.5
20260507224005 13 214 0.0 9.7 0.00 0.58 0.58 72 1014.4
20260507223505 13 222 1.6 12.9 0.00 0.58 0.58 72 1014.3
20260507223005 13 225 1.6 12.9 0.00 0.58 0.58 71 1014.1
20260507222505 13 230 1.6 9.7 0.00 0.58 0.58 72 1014.0
20260507222026 13 223 1.6 9.7 0.00 0.58 0.58 72 1014.1
20260507221505 13 226 0.0 12.9 0.00 0.58 0.58 74 1013.8
20260507221005 13 230 0.0 12.9 0.00 0.58 0.58 77 1013.9